Regional Weather Roundup
Issued by NWS San Angelo, TX

Home | Current Version | Previous Version | Text Only | Print | Product List | Glossary On
Versions: 1 2 3 4 5 6 7 8 9 10 11 12 13 14 15 16 17 18 19 20 21 22 23 24 25 26 27 28 29 30 31 32 33 34 35 36 37 38 39 40 41 42 43 44 45 46 47 48 49 50
000
ASUS44 KSJT 231710
RWRSJT
WEST CENTRAL TEXAS REGIONAL WEATHER ROUNDUP
NATIONAL WEATHER SERVICE SAN ANGELO TX
1100 AM CST THU FEB 23 2017

NOTE: "FAIR" INDICATES FEW OR NO CLOUDS BELOW 12,000 FEET WITH NO
SIGNIFICANT WEATHER AND/OR OBSTRUCTIONS TO VISIBILITY.

TXZ049-054-064>066-071>073-076>078-098-099-113-114-127-128-139-140-
154-155-168>170-231800
...LOCATIONS ACROSS WEST CENTRAL TEXAS...

CITY           SKY/WX    TMP DP  RH WIND       PRES   REMARKS
SAN ANGELO     SUNNY     81  35  19 SW13      29.67F
ABILENE        SUNNY     76  37  24 SW22      29.62F
DYESS AFB      SUNNY     82  42  24 W14       29.61S
JUNCTION       SUNNY     78  41  26 SW9       29.70F
SWEETWATER     SUNNY     80  32  17 SW21      29.67F
BROWNWOOD      SUNNY     75  46  35 S10       29.66F
COLEMAN        SUNNY     78  40  26 SW14G20   29.66F
SONORA         SUNNY     79  36  21 S12       29.76F
OZONA          NOT AVBL
BRADY          NOT AVBL
$$

TEXAS PANHANDLE/OKLAHOMA PANHANDLE

CITY           SKY/WX    TMP DP  RH WIND       PRES   REMARKS
AMARILLO       SUNNY     72  33  24 SW31G39   29.57F
BORGER         SUNNY     75  31  19 SW26G39   29.51F
CANADIAN       MOSUNNY   76  33  20 S17       29.49F
DALHART        SUNNY     68  27  21 SW32G43   29.52F
DUMAS          SUNNY     68  31  25 SW29G39   29.53S
GUYMON         NOT AVBL
HEREFORD       SUNNY     70  36  28 SW21G28   29.60F
PAMPA          SUNNY     73  34  24 SW24      29.53F
PERRYTON       SUNNY     71  35  26 S18G24    29.49F
$$

SOUTHERN PANHANDLE/SOUTH PLAINS/ROLLING PLAINS

CITY           SKY/WX    TMP DP  RH WIND       PRES   REMARKS
LUBBOCK        MOSUNNY   75  30  19 W24G36    29.62F
SNYDER         SUNNY     73  36  26 SW10      29.65F
CHILDRESS      SUNNY     72  36  26 S8        29.56F
SEMINOLE       SUNNY     76  30  18 SW22G31   29.69S
$$

PERMIAN BASIN

CITY           SKY/WX    TMP DP  RH WIND       PRES   REMARKS
MIDLAND        SUNNY     79  26  14 SW22      29.68F
ODESSA         SUNNY     79  25  13 W25G36    29.69F
WINK             N/A     79  25  13 SW20G35   29.67F
$$

FAR WEST/SOUTHWEST MOUNTAINS/TRANS PECOS

CITY           SKY/WX    TMP DP  RH WIND       PRES   REMARKS
ALPINE         SUNNY     74  20  13 SW15G26   29.89F
DRYDEN           N/A     83  20   9 SW18G26   29.72S
EL PASO        MOSUNNY   68  33  27 SW32G39   29.77F
FORT STOCKTON  SUNNY     83  23  11 SW18G25   29.73F
GUADALUPE PASS LGT RAIN  64  29  26 SW54G68   29.75S
MARFA          SUNNY     74  22  14 SW17G26   29.88F
PECOS          SUNNY     82  25  12 SW29G36   29.69S
$$

DALLAS/FORT WORTH METROPLEX

CITY           SKY/WX    TMP DP  RH WIND       PRES   REMARKS
DFW AIRPORT    SUNNY     78  47  33 S15       29.61F
FTW MEACHAM    SUNNY     78  46  32 S10       29.61F
DAL-EXECUTIVE  SUNNY     78  49  35 S10G17    29.63F
GRAND PRAIRIE  SUNNY     75  46  35 S10       29.65S
ADDISON        SUNNY     73  46  38 S7G18     29.63F
MESQUITE       SUNNY     73  46  38 SE15      29.64F
LANCASTER      SUNNY     73  49  41 S14G20    29.65F
$$

NORTH CENTRAL TEXAS

CITY           SKY/WX    TMP DP  RH WIND       PRES   REMARKS
SHRMAN/DENISON SUNNY     73  50  45 S12       29.63F
GAINESVILLE    SUNNY     70  50  48 SE13      29.62F
BRIDGEPORT     SUNNY     79  41  26 SW13      29.61F
DENTON         SUNNY     75  49  39 S12       29.62F
WAXAHACHIE     SUNNY     75  50  41 S14       29.66F
GRANBURY       SUNNY     79  45  29 S13       29.63F
$$

WESTERN NORTH TEXAS

CITY           SKY/WX    TMP DP  RH WIND       PRES   REMARKS
WICHITA FALLS  MOSUNNY   77  41  27 SW21G26   29.54F
VERNON         SUNNY     71  37  28 SW12      29.54F
BRECKENRIDGE   SUNNY     82  34  17 SW21G32   29.59F
COMANCHE       SUNNY     80  41  25 SW22G28   29.63F
$$

CENTRAL AND SOUTH CENTRAL TEXAS

CITY           SKY/WX    TMP DP  RH WIND       PRES   REMARKS
AUSTIN/BERGSTM SUNNY     78  48  34 S14G22    29.71F
WACO           SUNNY     73  51  46 S16       29.66F
HILLSBORO      SUNNY     71  52  49 S16       29.66F
TEMPLE         SUNNY     74  52  46 S18       29.68F
KILLEEN-GRAY   SUNNY     81  40  23 S17G25    29.67S
FORT HOOD      SUNNY     82  42  23 S17G23    29.65S
GEORGETOWN     SUNNY     79  45  29 S22       29.69F
LAGO VISTA     FAIR      82  38  20 SW9G22    29.72R
SAN MARCOS     SUNNY     75  48  38 SW15      29.73F
NEW BRAUNFELS  SUNNY     77  48  35 S13       29.72F
RANDOLPH AFB   SUNNY     77  48  36 S12       29.72F
SAN ANTONIO    SUNNY     76  48  37 S14       29.73F
STINSON        SUNNY     79  48  33 S9        29.71F
PLEASANTON     NOT AVBL
LA GRANGE      SUNNY     77  63  62 S10       29.71F
GIDDINGS       SUNNY     75  57  53 S13G18    29.73S
$$

EAST TEXAS

CITY           SKY/WX    TMP DP  RH WIND       PRES   REMARKS
PARIS          SUNNY     75  46  35 S18G24    29.67S
CLARKSVILLE    NOT AVBL
TYLER          SUNNY     74  49  41 S18G24    29.70F
LONGVIEW       SUNNY     76  52  43 S14G24    29.72F
PALESTINE      SUNNY     74  53  47 S9G18     29.74F
NACOGDOCHES    SUNNY     73  55  53 S13       29.76F
$$

TEXAS HILL COUNTRY AND EDWARDS PLATEAU

CITY           SKY/WX    TMP DP  RH WIND       PRES   REMARKS
LLANO          SUNNY     79  48  34 CALM      29.72F
HORSESHOE BAY    N/A     86  38  17 S3        29.70S
KERRVILLE      SUNNY     76  45  32 S13G20    29.73F
FREDERICKSBRG  SUNNY     79  37  22 SW17G25   29.72F
ROCKSPRINGS    SUNNY     81  39  22 SW9       29.76F
HONDO          SUNNY     75  46  35 S7        29.72F
UVALDE         SUNNY     74  45  34 SE8       29.71F
DEL RIO        SUNNY     72  40  31 CALM      29.69F
$$

SOUTHEAST TEXAS

CITY           SKY/WX    TMP DP  RH WIND       PRES   REMARKS
COLLEGE STN    SUNNY     75  59  57 S16       29.73F
CALDWELL       NOT AVBL
CROCKETT       SUNNY     73  55  53 S13G18    29.77F
BRENHAM        SUNNY     76  61  60 S10       29.74F
HUNTSVILLE     SUNNY     75  51  43 S14G26    29.76F
CONROE         SUNNY     75  57  53 S13       29.78F
HOUSTON BUSH   SUNNY     75  58  55 SE13      29.78F
HOUSTON HOBBY  SUNNY     76  61  59 S13       29.79F
PERLAND        SUNNY     77  60  55 S13       29.81S
WHARTON        SUNNY     77  61  57 S13       29.77F
$$

THE UPPER TEXAS COAST

CITY           SKY/WX    TMP DP  RH WIND       PRES   REMARKS
ORANGE         SUNNY     72  60  67 S10       29.85S
PORT ARTHUR    SUNNY     75  56  51 S10       29.82S
GALVESTON      SUNNY     73  65  75 S12       29.82S
ANGLETON       SUNNY     78  58  49 S14       29.79F
BAY CITY       SUNNY     75  65  70 S12       29.78S
$$

TEXAS COASTAL BEND, RIO GRANDE PLAINS DEEP SOUTH TEXAS

CITY           SKY/WX    TMP DP  RH WIND       PRES   REMARKS
VICTORIA       SUNNY     79  64  60 SE14      29.75S
BEEVILLE       FAIR      81  61  50 S14       29.72F
ROCKPORT         N/A    N/A N/A N/A MISG      29.74S
PORT ARANSAS   SUNNY     74  66  75 S13       29.74F
PORT LAVACA    SUNNY     78  67  68 SE16      29.75F
CORPUS CHRISTI SUNNY     80  62  54 S18       29.72F
KINGSVILLE NAS SUNNY     88  52  29 S17       29.71F
COTULLA        SUNNY     79  41  25 VRB3      29.71S
LAREDO         SUNNY     84  44  24 S9        29.70S
BROWNSVILLE    SUNNY     87  55  33 S16       29.75F
PORT ISABEL    SUNNY     85  60  42 S18G25    29.74F
HEBBRONVILLE   SUNNY     85  38  19 S13G18    29.71F HAZE
MCALLEN        SUNNY     90  43  19 S18G25    29.73F
WESLACO        SUNNY     85  51  29 S14G22    29.72F
FALFURRIAS     SUNNY     84  46  26 S16       29.71F
EDINBURG       SUNNY     89  36  15 S20       29.72F
$$




USA.gov is the U.S. government's official web portal to all federal, state and local government web resources and services.